Regional Weather Roundup
Issued by NWS

Home | Current Version | Previous Version | Text Only | Print | Product List | Glossary On
Versions: 1 2 3 4 5 6 7 8 9 10 11 12 13 14 15 16 17 18 19 20 21 22 23 24 25 26 27 28 29 30 31 32 33 34 35 36 37 38 39 40 41 42 43 44 45 46 47 48 49 50
000
ASUS43 KIND 142109
RWRIN

WEATHER ROUNDUP FOR INDIANA
NATIONAL WEATHER SERVICE INDIANAPOLIS IN
400 PM EST SUN FEB 14 2016

NOTE: "FAIR" INDICATES FEW OR NO CLOUDS BELOW 12,000 FEET WITH NO
SIGNIFICANT WEATHER AND/OR OBSTRUCTIONS TO VISIBILITY.

* - STATION DOES NOT REPORT WEATHER SUCH AS PRECIPITATION OR FOG.

+ - STATION NOT QUALITY CONTROLLED BY THE NATIONAL WEATHER SERVICE.
    USE DATA WITH CAUTION...ESPECIALLY DEWPOINT AND RELATIVE
    HUMIDITY OBSERVATIONS.

INZ001>003-010>013-019-020-142200-
NORTHWEST INDIANA

CITY           SKY/WX    TMP DP  RH WIND       PRES   REMARKS
GARY /AIRPORT/ LGT SNOW  19  12  73 SE14      30.17F VSB 1   WCI   6
KNOX *+        CLOUDY    18  12  79 E13       30.17F WCI   4
LA PORTE +     LGT SNOW  17  13  84 E18       30.16F WCI   1
MICHIGAN CITY+ LGT SNOW  18  10  73 SE14      30.17F WCI   4
MONTICELLO +   LGT SNOW  18  11  74 E10G18    30.15F WCI   6
RENSSELAER +   LGT SNOW  19  14  79 E16       30.14F WCI   5
VALPARAISO     SNOW      16  11  80 E16       30.15F WCI   1

$$

LMZ046-743>745-142200-
SOUTHERN LAKE MICHIGAN

STATION/POSITION TIME  TEMP    WIND        PRES    WAVE
                       AIR SEA DIR/SP/G            HT
                 (UTC) (F)     (DEG/KT/KT) (MB)    (FT)
BURNS HARBOR     2000   16     110/ 13/ 19 1022.0F
MICHIGAN CITY    2000   14      90/ 11/ 14   N/A

$$

INZ004-005-014>016-021>024-142200-
NORTH CENTRAL INDIANA

CITY           SKY/WX    TMP DP  RH WIND       PRES   REMARKS
ELKHART        LGT SNOW  18   5  57 SE12        N/A  WCI   5
GOSHEN         LGT SNOW  17   6  62 SE14      30.20F WCI   3
LOGANSPORT +   LGT SNOW  18  12  79 E15       30.17F WCI   3
PERU/GRISSOM   LGT SNOW  17  12  83 SE14      30.15F FOG     WCI   3
ROCHESTER +    LGT SNOW  19  12  73 E12       30.18F WCI   7
SOUTH BEND     LGT SNOW  14  10  84 E14       30.19F VSB 3/4 WCI  -1
WARSAW +       LGT SNOW  16  12  86 E12       30.20F VSB 3/4 WCI   3

$$

INZ006>009-017-018-025>027-142200-
NORTHEAST INDIANA

CITY           SKY/WX    TMP DP  RH WIND       PRES   REMARKS
ANGOLA *+      SUNNY     16   7  67 SE13      30.22F WCI   2
AUBURN +       CLOUDY    21   5  49 SE6       30.24S WCI  14
FORT WAYNE     LGT SNOW  16  11  80 SE14      30.22F VSB 1   WCI   2
HUNTINGTON +   LGT SNOW  16  10  74 E13       30.19F WCI   3

$$

INZ028-029-035-036-043>045-051>053-142200-
WEST CENTRAL INDIANA

CITY           SKY/WX    TMP DP  RH WIND       PRES   REMARKS
CRAWFORDSVL +  LGT SNOW  17  12  79 E13       30.12F VSB 3/4 WCI   4
GREENCASTLE +  SNOW      19  12  73 E9        30.12F VSB 1/4 WCI   9
LAFAYETTE      SNOW      18  15  88 E15       30.15F VSB 1/2 WCI   4
TERRE HAUTE    SNOW      19  15  84 E13       30.11S VSB 1/2 WCI   6

$$

INZ030>032-037>040-046>048-054>057-064-065-142200-
CENTRAL INDIANA

CITY           SKY/WX    TMP DP  RH WIND       PRES   REMARKS
COLUMBUS       SNOW      18  18 100 E13       30.17F VSB 1/2 WCI   4
FISHERS *+     CLOUDY    18  16  93 E7        30.16S VSB 1   WCI   8
FRANKFORT +    LGT SNOW  19  10  68 E10       30.16R WCI   8
GREENWOOD *+   CLOUDY    19  16  86 SE13      30.13F VSB 3/4 WCI   7
INDIANAPOLIS   LGT SNOW  18  14  84 E14       30.12F VSB 3/4 WCI   4
-EAGLE CREEK   SNOW      18  15  88 E10       30.14R VSB 1/2 WCI   6
KOKOMO *+      CLOUDY    18  10  73 SE15      30.16S WCI   3
MARION +       LGT SNOW  17   8  67 E9        30.18F WCI   5
MT COMFORT *+  CLOUDY    18  14  86 SE13      30.14F VSB 3/4 WCI   4
SHELBYVILLE    HVY SNOW  18  13  80 E15G24    30.14F VSB 1/4 WCI   4
ZIONSVILLE +   LGT SNOW  17  14  86 E9        30.15R VSB 3/4 WCI   6

$$

INZ033-034-041-042-049-050-058-059-142200-
EAST CENTRAL INDIANA

CITY           SKY/WX    TMP DP  RH WIND       PRES   REMARKS
MUNCIE         SNOW      17  12  80 SE15      30.16F VSB 1/2 WCI   2

$$

INZ060-061-067>069-081>083-085>088-142200-
SOUTHWEST INDIANA

CITY           SKY/WX    TMP DP  RH WIND       PRES   REMARKS
EVANSVILLE     HVY SNOW  25  19  78 E9        30.09F VSB 1/4 WCI  15
HUNTINGBURG *+ CLOUDY    21  18  86 E12       30.11F WCI   9
WASHINGTON +   LGT SNOW  21  18  88 SE14      30.10F VSB 3/4 WCI   8

$$

INZ062-063-066-070>080-084-089>092-142200-
SOUTH CENTRAL AND SOUTHEAST INDIANA

CITY           SKY/WX    TMP DP  RH WIND       PRES   REMARKS
BEDFORD +      LGT SNOW  19  18  93 SE8       30.12F VSB 3/4 WCI   9
BLOOMINGTON    SNOW      19  16  88 SE14      30.08F VSB 1/4 WCI   6
MADISON *+     CLOUDY    21  18  86 E8G17     30.17F VSB 1   WCI  12
NORTH VERNON + LGT SNOW  19  16  86 CALM      30.17F VSB 3/4
SEYMOUR +      LGT SNOW  21  18  86 E9        30.17F WCI  11

$$




USA.gov is the U.S. government's official web portal to all federal, state and local government web resources and services.